[[{"header":{"parameterUnit":"m.s-1","parameterCategory":1,"la1":30.2991,"la2":30.254,"lo1":-89.0895,"lo2":-89.0444,"dy":0.0017,"dx":0.0017,"nx":28,"ny":28,"refTime":"2023-07-29T03:00:00:Z","depth":0,"parameterNumber":2,"parameterNumberName":"U-component_of_WINDS"},"data":[0,0,0,0,0,0,0,0,0,0,0,0,0,0,0,0,0,0,0,0,0,0,0,0,0,0,0,0,0,0,0,0,0,0,0,0,0,0,0,0,0,0,0,0,0,0,0,0,0,0,0,0,0,0,0,0,0,0,1.8483,1.8483,0,1.8516,1.8517,1.8517,1.8494,1.8493,1.8492,1.8491,1.8532,1.8534,1.8536,0,0,0,0,0,0,0,0,0,0,0,0,0,1.8404,1.8406,1.8483,1.8483,1.8483,1.8516,1.8517,1.8517,1.8495,1.8493,1.8492,1.8491,1.8531,1.8533,1.8536,0,0,0,0,0,0,0,0,0,0,0,0,0,1.8438,1.8406,1.8482,1.8476,1.8476,1.8516,1.8517,1.8518,1.8495,1.8493,1.8492,1.849,1.853,1.8533,1.8536,1.8587,0,0,1.8546,1.8547,0,0,0,0,0,0,0,0,1.8436,1.8441,1.8476,1.8476,1.8476,1.8499,1.8504,1.8541,1.8495,1.8488,1.8491,1.8489,1.8523,1.8526,1.8536,1.8589,1.859,1.8546,1.8548,1.8549,1.855,0,0,0,0,0,0,0,1.8434,1.844,1.8496,1.8477,1.8477,1.8473,1.8476,1.8511,1.8514,1.8488,1.8487,1.8491,1.8522,1.8533,1.8537,1.8591,1.8546,1.8548,1.855,1.8552,1.8689,1.869,0,0,0,0,0,0,1.8432,1.8438,1.8495,1.8497,1.8452,1.8476,1.8479,1.8494,1.8513,1.8515,1.8492,1.849,1.8529,1.8533,1.8538,1.8599,1.8549,1.8552,1.8554,1.8687,1.8689,1.8691,0,0,0,0,0,0,1.843,1.8437,1.8494,1.8467,1.8474,1.8479,1.8495,1.8495,1.8506,1.8516,1.8517,1.8502,1.8528,1.8534,1.8575,1.86,1.8553,1.8556,1.8685,1.8687,1.869,1.872,0,0,0,0,0,0,1.8428,1.8436,1.8454,1.8468,1.8475,1.8527,1.8497,1.8497,1.8511,1.8508,1.8526,1.8527,1.8527,1.857,1.8578,1.8603,1.8558,1.8682,1.8686,1.8689,1.8717,1.8724,1.8729,0,0,0,0,0,1.8425,1.8462,1.8455,1.8462,1.8497,1.8529,1.8534,1.8531,1.8513,1.8531,1.8538,1.8527,1.8597,1.8575,1.8583,1.861,1.8681,1.8685,1.8689,1.8714,1.8722,1.8729,0,0,0,0,0,0,1.8452,1.8464,1.8456,1.8498,1.8512,1.8525,1.8548,1.8539,1.856,1.8557,1.8554,1.8559,1.8601,1.861,1.8586,1.8661,1.8636,1.8642,1.8653,1.866,1.8666,1.8663,1.8561,0,0,0,0,0,1.8463,1.8486,1.8496,1.8532,1.854,1.8543,1.8557,1.8553,1.8569,1.8575,1.8585,1.8602,1.8628,1.8645,1.867,1.8719,1.8723,1.8742,1.8748,1.8753,1.8758,1.8786,1.8794,1.8704,1.8704,1.8704,0,0,1.8486,1.8495,1.8509,1.8538,1.8548,1.8574,1.8548,1.8576,1.8595,1.858,1.8618,1.8627,1.8646,1.8692,1.8712,1.87,1.8784,1.8758,1.8762,1.8764,1.8791,1.8799,1.8807,1.8707,1.8706,1.8706,0,0,1.8539,1.8548,1.8579,1.8591,1.8608,1.861,1.8618,1.8632,1.8637,1.8675,1.8664,1.8689,1.8734,1.8748,1.8761,1.8823,1.8814,1.8832,1.8863,1.889,1.8897,1.8904,1.8926,1.8933,1.8837,1.8837,1.8837,0,1.8565,1.8601,1.8597,1.8626,1.8639,1.8626,1.8659,1.8671,1.8696,1.8706,1.8692,1.8748,1.8761,1.8809,1.8825,1.8836,1.8846,1.8828,1.8896,1.8903,1.8908,1.8929,1.8938,1.8839,1.8839,1.8838,1.8838,0,1.8632,1.8658,1.8682,1.8704,1.8721,1.8752,1.8754,1.8772,1.8768,1.8773,1.8814,1.8828,1.8855,1.8868,1.8865,1.8917,1.8909,1.8896,1.8871,1.8919,1.8939,1.8947,1.8842,1.8841,1.884,1.884,0,0,1.87,1.8722,1.873,1.8741,1.876,1.878,1.8813,1.8838,1.8853,1.8872,1.8899,1.8938,1.8926,1.8942,1.8941,1.8965,1.9013,1.8949,1.895,1.896,1.9072,1.908,1.9089,1.9008,1.901,1.9011,1.907,0,1.8754,1.8806,1.8805,1.8855,1.8879,1.8869,1.8897,1.8913,1.8919,1.8942,1.895,1.8977,1.896,1.897,1.8993,1.9002,1.9036,1.8998,1.9034,1.9036,1.9027,1.91,1.9108,1.9163,1.9078,1.9079,1.908,0,1.8822,1.8842,1.8893,1.891,1.892,1.8945,1.8969,1.8991,1.901,1.9013,1.9031,1.9027,1.9062,1.9038,1.9086,1.9061,1.9076,1.9084,1.9086,1.9087,1.9059,1.9102,1.9181,1.9188,1.9092,1.9091,1.9091,0,1.8865,1.8905,1.8941,1.8951,1.8971,1.8989,1.8999,1.9016,1.9032,1.9055,1.9065,1.9092,1.9107,1.9129,1.9133,1.9115,1.9182,1.9158,1.9186,1.9186,1.9199,1.9197,1.9279,1.9212,1.9211,1.9211,1.9211,0,1.8923,1.8955,1.8961,1.8982,1.9019,1.9019,1.9056,1.9065,1.9081,1.9106,1.9101,1.9125,1.913,1.9156,1.9161,1.92,1.9207,1.9212,1.9212,1.9211,1.921,1.922,1.9215,1.9214,1.9213,1.9213,1.9212,0,1.8976,1.8981,1.9019,1.9036,1.9042,1.9068,1.9083,1.9105,1.9112,1.9144,1.9152,1.9163,1.9194,1.9201,1.9238,1.9242,1.9288,1.9286,1.9281,1.928,1.9308,1.9305,1.9397,1.9409,1.9335,1.9335,1.9336,0,1.9012,1.9036,1.9056,1.9071,1.9082,1.9107,1.9124,1.9127,1.9144,1.9169,1.9189,1.9219,1.9242,1.9293,1.9305,1.9334,1.9332,1.9362,1.9336,1.9335,1.9331,1.9329,1.9332,1.9367,1.9367,1.9368,1.9368,0,1.9074,1.9076,1.9098,1.9123,1.9143,1.9162,1.9181,1.9195,1.9201,1.9222,1.9252,1.9271,1.9309,1.9339,1.9369,1.9381,1.9376,1.9377,1.9385,1.9383,1.9379,1.9381,1.9293,1.9374,1.9374,1.9373,1.9373,1.9373,1.9118,1.914,1.9157,1.9183,1.9198,1.9217,1.9238,1.9248,1.9273,1.9303,1.9305,1.9338,1.936,1.9399,1.9413,1.9441,1.9432,1.9444,1.9447,1.9449,1.9451,1.9376,1.9447,1.9447,1.9447,1.9447,1.9447,0,1.9179,1.9191,1.9215,1.9242,1.9263,1.9257,1.9278,1.9297,1.9326,1.9346,1.937,1.9406,1.9436,1.9452,1.9483,1.9502,1.9501,1.951,1.9508,1.9511,1.9458,1.9447,1.951,1.951,1.951,1.951,1.951,1.951,1.9213,1.9249,1.9254,1.9298,1.931,1.9342,1.9355,1.9373,1.9388,1.9429,1.9453,1.9463,1.9483,1.9515,1.9543,1.9547,1.9558,1.9568,1.9572,1.9521,1.9514,1.9508,1.9498,1.9571,1.9571,1.9622,1.9623,1.9623]},{"header":{"parameterUnit":"m.s-1","parameterCategory":1,"la1":30.2991,"la2":30.254,"lo1":-89.0895,"lo2":-89.0444,"dy":0.0017,"dx":0.0017,"nx":28,"ny":28,"refTime":"2023-07-29T03:00:00:Z","depth":0,"parameterNumber":3,"parameterNumberName":"V-component_of_WINDS"},"data":[0,0,0,0,0,0,0,0,0,0,0,0,0,0,0,0,0,0,0,0,0,0,0,0,0,0,0,0,0,0,0,0,0,0,0,0,0,0,0,0,0,0,0,0,0,0,0,0,0,0,0,0,0,0,0,0,0,0,4.0358,4.0359,0,4.0432,4.0433,4.0434,4.0412,4.0411,4.0409,4.0408,4.0474,4.0477,4.0481,0,0,0,0,0,0,0,0,0,0,0,0,0,4.019,4.0193,4.0358,4.0359,4.036,4.0432,4.0433,4.0434,4.0412,4.0411,4.0409,4.0407,4.0473,4.0477,4.0481,0,0,0,0,0,0,0,0,0,0,0,0,0,4.0263,4.0194,4.0358,4.0358,4.0359,4.0432,4.0433,4.0434,4.0413,4.0411,4.0408,4.0406,4.0472,4.0477,4.0481,4.0556,0,0,4.0496,4.0498,0,0,0,0,0,0,0,0,4.0259,4.0269,4.0357,4.0358,4.0359,4.0411,4.0398,4.0475,4.0413,4.0392,4.0408,4.0405,4.0454,4.046,4.0479,4.0559,4.0562,4.0496,4.0499,4.0501,4.0503,0,0,0,0,0,0,0,4.0254,4.0266,4.0387,4.0358,4.036,4.0352,4.036,4.0413,4.0434,4.0394,4.0392,4.0402,4.0454,4.0474,4.048,4.0563,4.0496,4.05,4.0503,4.0505,4.0708,4.071,0,0,0,0,0,0,4.025,4.0262,4.0385,4.0389,4.0303,4.0357,4.0366,4.0396,4.0434,4.0438,4.0404,4.0401,4.0467,4.0475,4.0483,4.0573,4.0501,4.0506,4.0508,4.0705,4.0708,4.0711,0,0,0,0,0,0,4.0246,4.0261,4.0382,4.0325,4.034,4.0362,4.0397,4.0399,4.0419,4.0442,4.0445,4.0421,4.0466,4.0476,4.0539,4.0575,4.0508,4.0512,4.0702,4.0706,4.071,4.0754,0,0,0,0,0,0,4.0241,4.026,4.029,4.0326,4.0343,4.0439,4.0399,4.0402,4.0428,4.0425,4.0458,4.0462,4.0465,4.0532,4.0543,4.058,4.0516,4.0699,4.0704,4.0709,4.0749,4.0758,4.0766,0,0,0,0,0,4.0235,4.0297,4.0292,4.0306,4.0382,4.0441,4.045,4.0456,4.0431,4.0461,4.0476,4.0461,4.0569,4.0538,4.0551,4.059,4.0697,4.0703,4.0708,4.0745,4.0757,4.0766,0,0,0,0,0,0,4.026,4.0302,4.0296,4.0372,4.0404,4.0437,4.0474,4.0467,4.0504,4.0499,4.0501,4.0509,4.0573,4.0587,4.0552,4.0664,4.0629,4.0638,4.0653,4.0664,4.0672,4.0667,4.052,0,0,0,0,0,4.0275,4.0322,4.0355,4.0418,4.0435,4.0452,4.0478,4.048,4.0511,4.0523,4.0543,4.0572,4.0612,4.0639,4.0677,4.0751,4.0758,4.0784,4.0793,4.08,4.0807,4.0848,4.086,4.073,4.073,4.073,0,0,4.0305,4.0333,4.0362,4.0424,4.0449,4.0496,4.0463,4.0513,4.0548,4.053,4.0592,4.0607,4.0639,4.0708,4.0739,4.0722,4.0845,4.0807,4.0813,4.0816,4.0855,4.0867,4.0878,4.0734,4.0733,4.0732,0,0,4.0383,4.041,4.0467,4.0494,4.0533,4.0545,4.0558,4.0594,4.0604,4.0667,4.0655,4.0694,4.0764,4.0788,4.0809,4.0899,4.0887,4.0912,4.0957,4.0997,4.1007,4.1016,4.1048,4.106,4.0919,4.0919,4.0919,0,4.0415,4.0488,4.0496,4.0549,4.0576,4.0566,4.0622,4.0646,4.0695,4.0713,4.0693,4.0783,4.0803,4.0878,4.0901,4.0918,4.0933,4.0907,4.1005,4.1014,4.1023,4.1054,4.1066,4.0922,4.0921,4.0921,4.0921,0,4.0524,4.0575,4.0615,4.0667,4.0699,4.0752,4.0767,4.0797,4.0797,4.0809,4.0873,4.0898,4.0942,4.096,4.0958,4.1035,4.1023,4.1005,4.0969,4.1038,4.1067,4.1079,4.0926,4.0925,4.0924,4.0923,0,0,4.0618,4.0677,4.0691,4.0715,4.0759,4.0797,4.085,4.0897,4.0923,4.0957,4.1,4.1061,4.1045,4.1069,4.107,4.1105,4.1175,4.1082,4.1083,4.1099,4.1262,4.1276,4.1289,4.1168,4.117,4.1172,4.1259,0,4.0701,4.0799,4.0809,4.0894,4.0941,4.0933,4.0979,4.101,4.1024,4.1063,4.1077,4.112,4.1096,4.1111,4.1145,4.116,4.1208,4.1153,4.1207,4.1209,4.1199,4.1304,4.1319,4.14,4.1271,4.1272,4.1274,0,4.081,4.0852,4.0944,4.0983,4.1003,4.1045,4.1089,4.1127,4.1161,4.1169,4.1198,4.1194,4.1247,4.1211,4.1283,4.1245,4.1268,4.1278,4.1282,4.1286,4.1245,4.1312,4.1426,4.1438,4.1292,4.129,4.1289,0,4.087,4.0949,4.1014,4.1035,4.1082,4.1112,4.1132,4.1165,4.1193,4.123,4.1248,4.129,4.1313,4.1345,4.1352,4.1325,4.1424,4.1388,4.1431,4.1431,4.1451,4.145,4.1571,4.1466,4.1466,4.1466,4.1465,0,4.0961,4.1017,4.1043,4.1083,4.1145,4.1156,4.1216,4.1235,4.1264,4.1306,4.1301,4.1339,4.1347,4.1387,4.1393,4.1452,4.1462,4.1468,4.1469,4.1469,4.1469,4.1484,4.1478,4.1469,4.1468,4.1468,4.1467,0,4.1038,4.1057,4.1129,4.1169,4.1181,4.1225,4.1258,4.1296,4.131,4.1363,4.1376,4.1397,4.1444,4.1456,4.151,4.1514,4.1584,4.1579,4.1574,4.1574,4.1616,4.1612,4.175,4.1769,4.1652,4.1653,4.1654,0,4.1095,4.1139,4.1185,4.1215,4.1238,4.1285,4.1315,4.1327,4.1357,4.1401,4.1433,4.1481,4.1519,4.1594,4.1613,4.1655,4.1651,4.1697,4.1657,4.1656,4.1652,4.165,4.1654,4.1704,4.1705,4.1706,4.1707,0,4.1193,4.1202,4.1247,4.1296,4.1333,4.1371,4.1407,4.1431,4.1447,4.1482,4.1532,4.1562,4.1621,4.1667,4.171,4.1728,4.172,4.172,4.1732,4.1732,4.1728,4.1731,4.1595,4.1716,4.1715,4.1715,4.1714,4.1714,4.1262,4.1301,4.1341,4.1392,4.1422,4.1457,4.1495,4.1516,4.1559,4.161,4.1613,4.1668,4.1701,4.1759,4.178,4.1821,4.1807,4.1824,4.1828,4.1833,4.1837,4.1722,4.1829,4.1828,4.1828,4.1828,4.1828,0,4.136,4.1387,4.1434,4.1487,4.1527,4.152,4.156,4.1593,4.1643,4.1676,4.1716,4.1774,4.182,4.1843,4.1888,4.1917,4.1914,4.1928,4.1926,4.193,4.1847,4.1832,4.193,4.193,4.193,4.193,4.193,4.193,4.1416,4.1483,4.1497,4.1578,4.1603,4.166,4.1683,4.1715,4.1742,4.1809,4.1849,4.1865,4.1894,4.1942,4.1983,4.1989,4.2006,4.2022,4.2025,4.1946,4.1936,4.1926,4.1912,4.2025,4.2025,4.2105,4.2106,4.2107]}]]